Content
SEND FEEDBACK

Daily
Averages
Monthly
Summary
United States of America

ASHEVILLE, NORTH CAROLINA


Home > North America > United States > North Carolina
Elevation: 682 meters     Latitude: 35 36N     Longitude: 082 32W

WEATHER
 
SELECT A DAY
Number of Records: 225,765;   Date Range: 1/1/95 - 7/27/14
 
SHARE

PRINT THIS DATA

[ ← Previous Day ]
WEATHER ALMANAC - 4 MAY, 2013
[ Next Day → ]
[ °F ]   °C
Weather ElementAverageHighLow
Temperature10.2 °C12.8 °C (12:54 am)8.9 °C (5:54 am)
Dewpoint7.1 °C9 °C (10:03 pm)2.8 °C (5:54 am)
Humidity81.3 %94 % (10:03 pm)66 % (3:54 am)
Barometer1016.9 hPa1018.6 hPa (2:44 am)1014.9 hPa (5:54 pm)
Wind Speed8.2 km/h18.5 km/h (2:54 am)
Wind Gust31.5 km/h (2:54 am)
Weather ElementAverage
Visibility14.8 km
Wind DirectionENE (62.6 °)

Weather ElementTotal
Precipitation16.26 mm
Heating Degree Days7.5 (Base 18.3)
Growing Degree Days0.8 (Base 10)
Averaged from 31 records on 4 May, 2013
WEATHER CONDITIONS BREAKOUT
WIND DIRECTION BREAKOUT
WEATHER BY HOUR - 4 MAY, 2013
[ °F ]   °C
Local TimeTemperatureDewpointHumidityBarometerVisibilityWind DirectionWind SpeedGust SpeedPrecipitationEventsConditions
12:54 AM12.8 °C7.8 °C72 %1017.9 hPa16.1 kmESE (120°)14.8 km/hOvercast
1:54 AM12.2 °C6.7 °C69 %1017.6 hPa16.1 kmEast (100°)13 km/hOvercast
2:44 AM12 °C6 °C67 %1018.6 hPa16.1 kmVariable9.3 km/hOvercast
2:54 AM11.1 °C6.1 °C71 %1017.6 hPa16.1 kmEast (100°)18.5 km/h31.5 km/hOvercast
3:16 AM11 °C6 °C71 %1018.3 hPa16.1 kmVariable7.4 km/hOvercast
3:54 AM10.6 °C4.4 °C66 %1017.3 hPa16.1 kmESE (120°)14.8 km/hOvercast
4:54 AM9.4 °C3.9 °C69 %1017.6 hPa16.1 kmVariable7.4 km/hOvercast
5:54 AM8.9 °C2.8 °C66 %1017.9 hPa16.1 kmCalmOvercast
6:54 AM8.9 °C4.4 °C74 %1017.9 hPa16.1 kmCalmOvercast
7:54 AM8.9 °C5.6 °C80 %1018.3 hPa16.1 kmEast (80°)5.6 km/hOvercast
8:23 AM9 °C6 °C82 %1018.6 hPa16.1 kmVariable9.3 km/hOvercast
8:54 AM9.4 °C6.1 °C80 %1017.9 hPa16.1 kmVariable11.1 km/hOvercast
9:54 AM9.4 °C6.1 °C80 %1017.9 hPa16.1 kmEast (100°)13 km/hOvercast
10:54 AM10 °C6.7 °C80 %1017.6 hPa16.1 kmVariable5.6 km/hOvercast
11:54 AM10 °C6.7 °C80 %1017.9 hPa16.1 kmVariable5.6 km/hOvercast
12:54 PM10 °C7.2 °C83 %1017.3 hPa16.1 kmVariable9.3 km/hOvercast
1:54 PM10 °C7.2 °C83 %1016.9 hPa16.1 kmVariable7.4 km/hOvercast
2:54 PM10 °C7.8 °C86 %1016.3 hPa16.1 kmESE (120°)9.3 km/hOvercast
3:54 PM10 °C8.9 °C93 %1015.9 hPa14.5 kmCalm0 mmOvercast
4:54 PM10 °C8.3 °C89 %1016.3 hPa16.1 kmSouth (170°)14.8 km/hOvercast
5:45 PM11 °C8 °C82 %1015.6 hPa16.1 kmVariable5.6 km/h0 mmOvercast
5:54 PM10.6 °C7.8 °C83 %1014.9 hPa14.5 kmSSE (160°)7.4 km/h0 mmRainLight Rain
6:54 PM10.6 °C8.9 °C89 %1014.9 hPa16.1 kmCalm0.25 mmRainLight Rain
7:54 PM10.6 °C8.3 °C86 %1014.9 hPa16.1 kmESE (120°)13 km/h0 mmRainLight Rain
8:54 PM10.6 °C8.3 °C86 %1015.2 hPa9.7 kmSSE (150°)7.4 km/h1.52 mmRainRain
9:54 PM10 °C8.9 °C93 %1016.3 hPa6.4 kmSW (220°)9.3 km/h5.08 mmRainRain
10:03 PM10 °C9 °C94 %1017.3 hPa14.5 kmSSW (210°)9.3 km/h0 mmRainLight Rain
10:27 PM10 °C9 °C94 %1016.9 hPa8 kmVariable5.6 km/h2.03 mmRainHeavy Rain
10:54 PM10 °C8.3 °C89 %1015.9 hPa12.9 kmVariable5.6 km/h4.32 mmRainRain
11:04 PM10 °C9 °C94 %1016.9 hPa14.5 kmSouth (170°)9.3 km/h0.25 mmRainLight Rain
11:54 PM10 °C8.3 °C89 %1014.9 hPa11.3 kmVariable5.6 km/h2.79 mmRainRain
Hourly data recorded from KAVL, located 0 kilometers away from Asheville, North Carolina







STORIES FROM OUR PARTNERS